Theta_e
318 319 320 325 325 324 330 331 332 336 330 326 328 330 323 325 329 326 329 331 334 331 331 335 335 336 337 341 341 340 341 342 343 343 344 341 335 335 337 340 342 340 340 339 339 339 338 339 338 339 338 338 336 335 333 332 333 335 334 332 332 333 332 332 333 333 333 333 333 334 334 333 333 333 334 333 331 332 332 332 333 331 330 330 329 329 329 329 330 328 327 326 324 323 321 320 321
319 319 320 324 325 325 335 331 326 333 328 322 324 325 323 328 334 330 333 335 334 332 336 339 337 336 335 339 339 342 342 338 339 341 339 335 334 339 339 341 341 340 340 339 338 338 338 338 338 338 337 337 336 335 333 332 332 333 333 334 333 333 333 332 333 333 333 333 333 334 333 333 333 334 334 332 331 331 330 331 332 333 333 332 329 328 328 329 329 328 327 326 323 321 321 322 323
319 319 320 323 326 326 332 329 324 326 322 321 321 323 328 334 337 334 335 336 335 336 339 338 339 336 335 341 341 345 343 337 337 337 336 334 337 340 341 341 340 340 339 338 338 338 337 337 338 337 337 337 336 335 333 332 333 333 334 334 333 333 333 333 333 334 333 333 333 333 333 333 333 333 333 332 331 332 332 332 333 333 334 333 332 329 328 328 328 327 327 326 323 321 321 323 323
318 321 323 323 330 332 330 328 327 323 320 324 320 323 335 337 336 335 335 336 338 339 337 337 339 335 337 344 340 342 341 337 337 335 335 334 337 340 340 339 338 339 338 338 338 337 337 337 338 337 337 336 335 335 333 334 335 335 334 333 333 333 332 332 332 333 333 332 332 332 332 333 332 332 332 332 331 331 331 332 332 333 334 334 333 329 326 326 325 325 326 325 323 321 321 323 323
319 321 324 322 328 332 328 325 329 324 319 326 321 324 337 336 336 336 335 336 338 339 336 336 336 332 337 341 339 342 341 338 336 335 335 334 337 339 339 337 336 338 338 339 337 337 336 335 336 337 337 336 336 336 333 332 333 334 334 332 333 332 331 331 331 331 331 331 331 331 331 332 332 331 330 331 331 331 331 332 333 333 334 334 333 329 326 325 323 323 324 324 323 320 320 322 323
319 321 322 322 324 325 327 324 328 327 321 326 322 327 337 333 336 335 334 335 336 339 336 334 334 336 340 338 338 341 339 338 336 333 334 334 336 337 337 337 337 340 339 338 337 336 335 333 335 337 336 336 337 336 333 331 331 333 333 332 332 332 331 329 329 330 330 331 331 331 331 331 331 331 330 331 331 331 331 331 332 332 332 332 331 329 327 327 325 324 324 324 322 319 320 322 323
319 324 326 326 328 326 326 323 327 329 323 323 321 329 336 331 335 335 335 334 334 335 334 334 334 339 340 338 339 338 336 337 335 333 333 333 335 335 336 336 338 340 339 338 336 336 334 332 335 336 336 337 336 335 335 331 330 332 332 332 332 331 330 329 330 330 331 331 331 331 331 330 331 331 330 331 331 331 331 329 330 330 329 329 328 327 327 327 326 325 324 324 322 319 319 321 322
321 325 330 330 333 330 327 327 330 330 321 319 322 329 334 333 336 336 335 333 332 332 333 333 331 338 339 340 343 338 335 336 334 333 332 333 334 334 334 335 337 338 337 336 334 333 332 333 336 336 336 335 335 335 335 331 329 331 332 331 331 331 330 331 331 331 331 332 330 329 330 329 329 329 330 331 331 332 332 330 330 330 329 326 326 327 327 326 326 325 324 324 322 319 319 320 321
321 324 331 330 331 331 329 330 328 326 321 320 320 325 330 333 334 332 332 330 331 332 331 330 330 339 339 340 341 337 334 334 332 332 333 333 334 333 334 334 335 336 335 335 333 329 331 336 336 336 336 334 334 334 333 330 330 331 331 331 332 332 331 331 332 332 332 332 330 328 329 329 328 328 329 330 330 331 331 331 331 331 330 327 326 326 326 326 325 324 324 323 321 319 319 319 320
325 323 328 330 328 327 329 330 325 322 321 321 319 323 327 329 330 329 328 326 330 332 329 329 329 337 340 340 340 338 334 333 332 332 332 333 333 333 334 334 335 335 334 335 331 328 333 337 336 336 336 335 333 333 331 330 331 331 331 330 331 332 331 331 332 332 332 331 329 329 329 328 328 328 328 329 330 330 330 330 331 331 330 329 327 325 325 325 324 324 324 322 320 319 319 319 319
328 327 325 329 327 325 327 330 325 320 320 321 320 322 324 326 329 327 326 326 331 334 329 328 327 332 340 341 340 338 334 334 333 331 332 333 333 333 334 334 334 334 334 334 329 329 335 336 336 337 336 335 333 331 330 330 331 331 331 329 330 332 331 330 330 331 330 328 327 327 328 328 328 327 328 328 329 329 329 329 330 330 329 329 327 326 325 324 323 323 322 319 319 319 319 319 319
329 332 327 326 328 326 327 329 325 323 326 326 321 322 324 327 329 326 326 327 333 336 329 330 326 327 338 342 341 337 333 333 332 330 332 333 333 333 334 334 334 334 333 331 328 332 336 336 337 336 336 335 332 330 329 329 329 330 330 328 329 331 330 328 328 329 329 327 326 326 325 327 327 327 327 327 327 328 329 329 329 329 328 328 327 326 325 321 320 319 318 318 318 318 319 319 319
327 333 327 327 331 328 326 328 329 331 332 327 322 323 324 326 328 325 325 327 331 333 328 329 324 326 339 341 339 337 336 333 331 331 332 333 333 333 333 334 334 333 332 330 329 333 335 335 337 336 336 334 330 329 329 328 328 329 329 329 329 330 329 328 327 327 328 327 325 325 323 325 326 326 327 327 327 327 327 328 328 328 328 326 325 324 320 317 316 317 317 318 318 318 318 319 319
326 330 326 330 334 329 327 327 333 334 326 324 323 323 325 325 326 325 329 332 331 329 325 323 322 332 341 341 339 339 337 332 331 332 332 333 332 332 333 334 334 334 333 331 330 332 334 335 336 336 335 332 329 329 329 329 328 329 329 328 328 328 329 329 329 327 327 325 322 321 321 323 326 326 327 328 327 326 325 326 327 327 326 323 321 319 316 316 317 317 318 318 318 318 318 319 320
324 330 327 330 332 328 331 329 331 330 320 322 324 323 326 324 324 326 331 334 332 327 325 324 322 327 336 343 344 338 336 333 331 332 332 332 332 332 333 334 335 334 334 332 332 332 333 334 335 336 335 332 330 330 330 329 329 329 329 328 326 326 328 329 330 328 326 325 321 320 318 322 326 326 326 326 325 325 324 325 325 324 323 319 317 317 317 317 318 318 318 318 317 317 318 321 322
322 330 331 327 329 328 332 328 326 326 320 322 323 323 327 323 324 324 324 329 331 326 326 327 325 327 334 343 344 336 334 333 332 332 332 332 332 332 332 334 335 334 334 333 333 333 333 333 335 336 334 332 331 331 330 328 329 329 329 328 325 325 327 328 329 329 327 325 323 319 317 321 325 325 325 324 324 324 322 323 322 320 318 316 316 317 318 318 318 318 317 317 318 319 321 322 323
328 331 332 326 328 328 327 324 322 323 320 322 321 322 326 323 324 322 319 326 329 328 329 328 325 333 340 340 337 335 335 333 332 332 331 331 331 331 331 332 333 334 334 334 334 334 333 333 334 335 334 332 331 332 329 328 328 328 328 328 327 326 326 327 329 328 327 325 323 320 316 318 321 321 321 321 321 321 320 320 318 317 317 317 318 318 318 317 317 317 316 318 320 321 322 323 323
339 333 327 327 331 327 323 319 320 321 320 319 318 320 325 324 324 322 320 324 326 328 330 330 329 333 337 336 335 335 334 333 333 331 331 331 330 331 331 331 332 332 333 335 335 334 334 334 334 334 333 332 332 331 330 328 328 327 327 327 327 327 326 327 328 328 327 326 324 321 317 316 317 317 316 316 317 317 318 318 318 317 318 318 317 317 317 316 316 315 316 319 321 322 322 323 324
342 336 327 330 330 324 320 318 318 319 318 318 318 320 322 321 322 322 322 323 324 327 329 331 332 334 336 335 335 335 334 333 332 331 331 330 330 330 330 331 331 330 331 333 334 334 332 332 334 333 333 333 332 331 330 329 328 327 326 327 326 326 326 326 327 327 327 325 324 323 322 321 320 317 315 315 315 316 317 317 318 318 317 317 316 316 316 315 315 316 319 321 322 322 322 324 325
333 334 333 336 330 319 317 318 317 317 318 318 318 318 319 318 320 321 322 322 323 326 329 333 333 333 338 336 333 334 334 333 332 331 330 330 330 330 329 330 330 330 331 330 332 334 331 331 333 333 334 334 333 331 330 329 329 328 327 327 325 324 325 325 326 326 326 325 324 326 326 325 324 321 317 315 316 316 317 317 317 317 316 316 316 315 315 315 316 319 322 323 324 324 323 324 324
327 329 333 334 326 318 316 317 317 318 317 318 319 318 318 317 317 318 320 321 323 324 325 334 333 331 337 337 334 334 333 333 332 331 330 330 330 329 329 329 330 330 330 330 330 331 331 331 331 333 334 334 333 332 331 330 329 328 327 326 324 323 324 324 324 325 324 323 324 326 327 326 326 324 320 316 316 316 316 317 317 317 316 316 316 315 316 317 319 322 324 324 324 325 324 324 324
326 326 328 327 320 316 317 318 319 320 318 318 319 319 318 316 316 318 318 320 324 323 320 328 330 328 335 337 334 334 333 333 333 332 331 330 329 329 330 329 330 329 329 330 329 329 330 330 330 333 335 335 334 333 331 329 328 327 326 326 323 321 322 323 322 324 323 320 324 326 326 326 326 325 322 317 317 316 316 317 316 317 316 316 316 316 315 318 322 324 324 325 325 325 325 325 324
327 326 326 324 319 317 318 319 319 320 321 320 320 319 319 317 318 318 319 319 322 324 320 324 327 327 334 336 334 334 333 333 333 333 332 330 330 329 329 330 330 329 329 329 329 329 330 330 330 332 333 334 334 333 330 327 326 327 327 327 324 318 319 323 324 324 324 321 323 326 325 325 325 325 322 318 319 319 318 319 318 317 317 316 317 317 316 320 324 325 325 325 325 325 325 325 325
325 325 324 322 319 318 320 320 319 320 321 321 320 320 320 320 319 318 319 320 321 321 317 320 324 325 333 335 334 334 333 333 333 333 333 331 330 330 329 330 330 330 330 329 329 329 329 329 329 330 331 331 333 331 329 327 327 328 327 327 325 319 319 323 326 325 325 324 322 324 326 325 325 324 321 318 320 321 320 322 321 318 318 318 319 319 320 323 325 325 325 325 325 325 325 325 325
323 323 322 320 319 319 322 322 321 322 322 321 321 321 323 324 320 317 318 321 322 319 316 322 325 325 334 336 335 334 333 333 334 333 333 331 330 331 330 330 330 330 330 329 329 329 328 329 329 329 329 329 330 330 328 327 327 328 327 327 325 324 322 322 325 325 324 325 322 323 325 325 325 322 320 318 320 322 322 323 323 319 319 321 319 320 322 324 326 325 326 325 324 325 325 325 325
323 322 320 318 319 321 323 322 322 324 323 323 323 323 326 325 319 318 319 320 320 318 320 328 329 327 333 337 335 332 332 333 334 334 334 333 331 332 332 330 330 330 330 330 330 329 328 329 329 328 329 329 329 329 328 326 326 327 327 327 326 326 325 323 324 325 324 324 320 322 325 323 321 321 322 320 318 322 323 324 324 321 321 322 320 322 325 324 325 325 325 325 325 324 324 324 324
324 324 323 320 323 325 324 324 324 325 325 325 325 325 327 323 318 321 322 321 320 319 321 326 330 330 331 335 335 332 332 333 334 334 334 333 332 333 333 331 331 331 331 330 330 330 329 329 329 329 329 328 328 329 327 325 326 327 326 327 326 325 327 324 323 323 324 324 320 320 324 322 320 322 324 321 317 320 324 323 324 323 322 323 323 325 326 324 325 325 325 325 325 323 322 323 323
324 326 325 323 326 327 325 326 326 324 325 326 325 325 326 322 319 320 321 322 323 322 322 324 328 331 330 332 335 332 332 333 333 334 334 334 333 333 333 332 332 331 330 331 330 330 330 329 329 329 329 329 328 328 326 325 326 327 326 327 326 324 326 325 322 323 324 324 321 318 321 323 322 323 323 321 320 321 322 320 321 323 322 323 325 325 325 325 325 325 325 325 324 323 322 323 322
324 325 325 325 326 327 327 326 326 325 324 324 324 325 326 323 322 322 321 321 322 323 323 323 324 328 331 331 334 333 331 333 333 333 334 334 334 334 333 332 333 332 330 331 330 330 330 330 329 329 329 329 328 328 326 326 327 327 326 327 326 323 325 324 323 325 324 323 320 316 320 324 323 324 324 323 323 322 320 318 320 323 324 325 326 325 325 325 324 324 324 325 324 323 323 323 322
325 324 325 328 328 327 327 325 325 325 325 324 325 329 327 323 324 324 322 321 320 321 321 323 323 325 329 330 333 333 330 330 332 333 334 335 335 335 334 333 333 332 331 331 330 330 330 330 329 329 329 328 328 328 327 326 327 327 326 326 325 321 321 323 324 326 323 322 322 318 319 323 324 325 325 324 323 324 322 321 323 325 326 326 326 325 325 324 324 324 324 324 324 323 323 323 321
326 326 327 330 330 328 326 326 326 326 325 324 325 328 327 324 325 323 322 320 317 320 320 322 324 323 327 329 332 333 330 329 331 333 334 334 334 335 335 334 334 333 332 331 331 331 330 330 330 329 329 328 328 327 327 326 327 328 327 326 323 318 315 319 324 325 322 322 325 322 319 322 325 326 327 325 324 325 325 325 326 326 326 325 326 325 324 324 324 324 325 325 324 323 323 322 322
326 329 330 330 330 329 329 328 326 326 323 322 325 327 326 324 325 323 322 320 318 320 321 322 325 324 325 327 331 333 330 328 330 332 333 333 334 334 335 335 334 334 333 332 332 332 331 331 330 330 329 328 328 327 326 326 327 328 327 326 323 316 312 314 319 321 322 324 326 325 321 320 324 326 327 326 325 325 326 326 326 326 326 326 326 325 324 325 325 324 324 325 323 322 323 323 323
326 331 333 331 330 330 332 329 327 327 321 318 323 327 327 325 324 321 319 321 320 320 322 322 324 324 324 326 330 333 333 331 330 331 332 333 333 334 334 335 335 335 334 333 333 332 332 331 331 330 329 328 328 327 326 325 326 327 327 327 324 318 314 313 313 316 322 326 327 326 323 319 319 324 327 326 326 325 325 327 326 325 326 326 325 324 324 325 324 324 324 324 323 322 323 323 323
329 329 332 331 330 329 331 330 326 324 320 317 319 323 325 324 322 319 315 318 322 322 323 322 322 323 323 325 331 333 334 334 331 329 332 333 333 334 334 334 335 335 335 334 334 333 332 332 331 330 330 329 328 328 328 326 325 326 327 327 325 322 318 316 314 314 319 325 326 325 324 321 316 320 326 327 327 325 325 327 326 326 326 326 326 324 325 324 323 323 324 324 323 323 323 323 323
331 329 331 333 331 329 330 330 324 321 321 319 318 318 319 319 319 319 316 316 320 322 323 322 321 322 323 325 331 333 333 334 331 328 331 333 333 333 333 334 334 335 335 334 334 334 333 332 331 331 330 330 329 328 328 327 326 327 327 327 327 324 322 320 317 315 316 321 324 323 322 322 317 317 323 327 327 326 326 327 326 327 326 326 326 325 324 324 324 323 324 324 324 324 324 324 323
331 330 330 333 334 332 330 328 322 319 321 322 321 319 317 317 317 318 317 316 318 319 320 321 319 321 324 325 328 332 333 332 329 328 330 332 333 333 333 334 334 334 335 334 335 334 334 333 332 332 331 330 329 328 328 327 327 328 327 327 327 325 323 321 319 317 316 317 320 321 321 322 321 320 321 324 327 327 326 327 326 326 326 326 326 325 325 324 324 324 324 324 324 325 324 324 323
331 331 331 333 335 334 331 326 319 318 321 322 322 321 320 320 319 318 319 319 319 318 317 317 317 318 322 325 327 330 332 330 327 328 330 331 332 333 333 333 333 334 334 334 334 334 334 333 332 332 331 331 330 329 328 327 327 328 327 327 326 325 323 322 321 319 317 317 318 321 322 322 323 323 322 322 324 326 326 327 327 327 327 327 326 326 325 324 324 324 324 324 324 325 325 324 323
330 333 333 333 335 334 331 326 319 317 322 325 323 321 321 320 320 321 321 322 321 320 318 317 316 316 317 323 326 328 328 328 327 328 329 331 332 333 333 333 333 333 334 334 334 334 334 333 333 333 331 331 331 330 329 327 327 327 327 327 326 325 323 322 321 319 318 318 320 323 323 324 324 325 325 324 323 324 325 326 327 327 327 327 327 327 325 324 324 323 324 325 325 325 325 324 322
331 335 334 335 336 335 329 322 318 318 323 331 329 325 325 323 322 323 323 324 323 321 321 319 317 316 315 317 322 325 327 328 330 330 328 330 331 332 332 333 333 333 333 333 334 333 333 333 333 333 332 332 331 331 330 328 327 327 327 327 326 325 324 322 320 319 319 320 324 325 325 324 324 325 327 326 325 324 325 326 326 326 327 327 327 327 326 325 325 324 325 325 325 325 324 324 323
331 334 336 337 337 335 332 323 319 320 324 330 330 326 324 322 320 321 321 322 323 323 323 321 319 317 316 315 318 323 326 327 329 330 330 329 330 331 331 332 332 332 332 332 333 333 333 333 333 333 333 332 332 331 330 330 329 327 327 327 326 326 325 323 322 322 321 323 327 327 326 326 325 326 327 327 326 326 326 326 326 326 327 327 327 327 326 326 326 325 326 326 325 325 323 323 323
331 332 334 337 335 335 334 326 319 320 323 323 322 325 327 324 321 320 319 320 321 322 322 322 320 318 317 317 317 319 323 325 325 328 330 329 328 330 331 331 332 332 332 332 332 332 332 332 333 333 333 333 332 332 331 330 330 329 328 327 327 327 326 326 325 326 325 325 328 329 327 327 327 327 328 328 327 327 327 326 326 326 326 327 327 327 326 326 326 326 326 326 325 325 323 321 322
331 331 331 332 333 334 330 324 321 324 329 324 319 330 338 333 325 322 320 320 321 321 321 321 321 319 318 317 316 317 319 322 323 325 329 329 328 329 330 331 331 331 331 332 331 332 332 332 332 332 333 333 332 332 332 331 331 330 329 328 328 328 328 328 328 328 328 327 329 329 329 329 328 328 328 328 328 328 327 327 327 326 326 326 327 326 326 326 325 326 326 326 325 325 322 321 321
331 331 331 331 333 334 329 324 326 331 335 325 318 329 338 332 326 323 322 322 322 322 321 321 320 319 318 316 315 316 316 319 322 323 327 329 328 328 329 330 330 331 331 331 331 331 331 331 331 331 332 332 333 332 332 332 331 331 330 330 329 329 328 329 329 329 329 329 329 330 330 330 329 329 329 329 329 328 328 328 327 327 327 326 326 326 326 326 326 326 326 326 326 325 322 321 322
332 333 333 332 333 334 331 330 332 332 331 326 319 324 330 328 326 324 323 323 323 322 321 321 320 319 319 317 316 316 315 316 320 323 327 329 328 328 329 330 330 331 331 331 331 331 331 331 331 331 331 332 332 333 332 332 331 331 331 330 330 330 330 330 330 330 330 330 330 330 330 330 330 330 330 330 329 329 329 328 328 328 327 327 326 326 326 326 326 326 326 326 326 325 322 321 322
333 335 334 332 333 334 332 333 333 329 331 332 325 322 329 330 330 327 323 323 324 323 321 321 320 320 320 319 318 316 315 316 319 322 325 327 328 328 329 329 330 331 330 330 331 330 330 330 331 331 331 331 332 332 332 332 331 330 330 331 331 331 331 331 331 331 330 331 331 331 331 330 330 330 330 330 330 330 329 329 328 328 328 327 327 327 326 327 327 327 327 326 326 326 323 322 322
332 333 333 332 332 331 331 333 334 331 333 335 329 326 331 333 332 328 324 324 325 322 322 321 320 321 320 319 320 318 316 316 319 321 322 324 326 329 329 329 330 330 330 330 330 331 331 330 330 330 330 331 331 331 332 332 332 331 330 330 330 331 331 331 331 331 331 331 331 331 331 330 331 330 330 330 330 330 330 330 329 328 328 328 327 327 327 327 327 327 327 326 326 325 323 323 323
331 330 330 330 331 332 333 333 333 334 334 334 332 329 329 333 334 330 325 326 325 321 321 321 320 321 321 321 321 320 317 315 317 320 320 320 324 328 329 329 329 330 330 330 330 329 330 330 330 330 330 330 330 330 331 331 331 331 330 330 330 330 331 331 331 331 331 331 331 331 331 331 331 331 331 330 330 330 330 330 330 329 328 328 328 328 328 328 327 327 327 326 326 325 323 323 324
330 330 329 330 331 332 333 330 331 337 334 328 330 330 329 331 334 333 328 327 326 323 322 323 321 322 323 323 322 321 320 316 316 318 319 318 321 325 326 328 328 329 329 329 329 329 329 330 330 330 330 330 330 330 330 331 331 331 330 330 330 330 330 330 331 331 331 331 331 331 331 331 331 331 331 331 331 331 330 330 330 330 329 328 328 328 328 328 328 327 327 327 326 325 324 323 324
329 329 329 331 332 331 333 331 331 335 331 322 323 329 330 328 328 329 327 324 325 324 322 322 322 321 323 326 325 322 320 318 317 317 317 318 319 319 322 326 327 327 329 329 329 329 329 329 329 329 330 330 330 330 330 330 330 330 330 330 330 330 329 330 330 330 331 331 331 332 331 331 331 331 331 331 331 331 331 331 330 330 330 329 329 328 328 328 328 328 327 327 326 324 323 323 324
328 327 329 333 333 333 335 333 331 333 330 324 323 327 327 326 327 326 324 322 323 322 321 322 323 324 325 330 333 331 325 322 320 318 317 319 317 314 316 322 325 325 327 328 328 329 328 328 329 329 329 329 330 330 330 330 330 330 330 330 330 330 330 330 330 330 330 330 331 331 331 331 331 331 331 331 331 331 331 331 330 330 330 329 329 328 328 328 328 328 327 326 325 324 322 322 323
327 327 329 331 332 333 333 332 332 332 328 322 323 327 329 331 331 324 320 321 320 320 321 322 323 325 327 329 332 333 328 324 324 323 321 320 314 311 313 317 321 324 325 326 327 328 328 328 328 328 328 329 329 330 330 330 330 330 330 330 330 330 330 330 330 330 330 330 330 331 331 331 331 331 331 331 331 331 331 331 330 330 330 329 329 328 328 328 328 327 326 325 324 323 322 322 322
327 328 330 330 331 333 331 331 332 332 328 323 322 328 330 330 327 319 317 320 319 319 320 319 320 322 323 324 325 326 326 326 328 327 328 323 312 310 313 314 316 320 322 324 326 327 328 327 328 328 328 328 328 329 330 330 330 330 330 330 330 330 330 330 330 330 330 330 330 330 330 330 330 330 330 331 331 331 331 331 331 330 329 329 329 329 328 328 327 327 325 324 324 323 322 322 321
327 329 330 327 330 335 333 330 328 328 330 327 324 327 327 325 323 320 320 322 320 321 321 319 319 320 320 322 323 323 325 328 330 330 332 328 315 311 314 314 315 317 319 322 324 326 327 328 328 328 328 328 328 328 329 329 330 330 330 331 331 331 330 330 330 329 330 330 329 329 329 329 330 329 329 330 330 330 330 330 330 330 329 329 329 329 328 327 327 326 325 324 323 323 322 321 321
327 329 328 324 329 335 335 331 327 326 329 328 324 325 326 326 328 326 323 323 321 321 322 321 320 320 320 321 322 323 326 328 331 331 329 323 312 309 312 313 314 315 316 319 321 324 326 327 328 328 328 329 329 329 329 329 329 330 330 331 331 331 331 330 330 329 329 329 329 329 329 329 329 329 329 329 329 329 330 330 329 330 329 329 329 328 328 327 326 324 324 323 323 323 322 321 320
325 327 325 327 331 331 330 331 330 329 328 329 327 325 325 324 327 327 324 326 327 324 323 321 320 319 319 320 321 322 326 330 332 331 329 324 313 307 309 311 312 313 314 315 316 319 322 325 326 327 327 328 328 329 329 329 329 330 330 330 330 331 331 331 330 330 329 329 329 329 329 329 329 329 329 329 329 330 330 330 329 329 329 329 329 328 327 326 324 323 323 322 322 322 321 320 319
324 326 324 328 330 328 328 329 332 332 328 330 329 326 328 326 322 323 323 324 326 326 326 324 321 319 318 318 320 325 330 334 336 334 333 332 317 308 310 311 310 311 311 311 312 313 315 319 322 324 325 326 327 328 329 329 329 329 329 329 330 330 330 330 330 330 329 329 329 329 329 329 329 330 330 330 330 330 330 330 329 329 329 329 328 327 326 324 323 323 323 323 322 321 320 319 318
326 327 326 328 327 327 330 328 333 335 330 332 330 327 335 333 321 319 322 321 321 324 327 328 325 321 318 317 322 331 334 335 338 335 335 333 317 309 313 314 312 312 311 310 311 310 311 312 314 317 319 321 323 324 326 327 328 329 329 329 329 329 330 330 330 330 330 329 329 329 329 329 330 330 330 330 330 330 330 330 329 328 328 327 327 326 324 323 323 323 322 322 322 321 319 317 316
325 326 325 327 325 326 330 330 330 331 329 333 332 328 336 337 323 317 320 320 320 323 326 330 330 325 321 324 330 335 333 332 334 332 333 330 315 309 313 313 312 313 312 312 312 311 312 311 311 312 313 315 317 318 320 322 323 325 326 327 328 328 329 329 329 330 329 329 329 329 329 329 330 330 330 330 330 330 330 329 329 328 327 327 325 324 324 323 323 322 322 321 320 319 317 315 314
Wind_Speed
11 12 10 10 12 13 8 3 3 3 3 1 3 1 2 1 3 3 4 5 3 2 2 4 3 3 5 7 9 9 5 1 1 2 2 6 15 18 17 20 21 20 20 19 18 17 15 13 12 12 12 13 13 13 13 14 15 15 13 14 14 13 14 15 15 16 16 16 17 16 17 17 18 17 17 18 18 17 17 17 18 18 18 18 19 19 19 19 19 18 18 19 19 20 21 22 23
11 12 10 10 9 6 3 2 3 3 4 2 2 2 1 3 6 5 5 5 3 1 2 5 5 7 9 10 9 7 6 5 3 2 3 12 17 17 22 22 19 19 20 18 17 16 15 13 13 12 12 12 13 13 14 15 15 15 15 13 12 14 15 15 15 16 16 16 16 17 17 17 18 17 17 18 18 17 16 17 16 17 17 17 18 19 18 18 18 18 18 18 19 20 21 23 24
11 11 11 10 5 0 1 3 3 1 3 0 3 1 2 6 5 4 5 6 5 3 4 5 6 5 7 7 5 5 2 3 6 5 5 13 14 18 23 18 16 17 18 17 15 14 14 13 13 12 12 12 13 13 14 15 14 14 15 14 13 14 15 16 15 16 16 16 16 17 17 17 18 17 17 17 17 17 17 16 15 16 16 17 19 19 18 17 17 17 17 18 18 20 21 22 23
11 10 10 9 3 2 3 3 2 2 1 2 0 2 4 6 5 5 4 4 4 4 4 4 4 2 5 8 4 5 4 2 6 6 4 10 14 20 19 13 13 14 16 16 14 13 13 13 13 13 13 13 13 13 14 15 14 13 13 13 13 14 15 15 15 15 15 15 16 16 16 16 16 17 17 17 16 16 17 15 15 15 16 17 17 17 17 16 17 17 17 18 18 19 21 21 21
11 9 7 4 2 2 2 2 1 3 2 3 4 3 5 7 6 5 3 3 4 5 3 3 2 1 5 5 1 3 3 4 7 8 8 14 19 20 17 13 11 13 15 13 12 13 12 12 13 13 14 14 13 13 14 15 15 14 12 12 12 14 14 14 14 14 15 15 15 15 15 15 16 16 16 16 14 14 15 15 15 15 15 16 15 16 16 16 15 16 16 17 17 19 20 20 20
11 9 4 0 1 0 2 1 2 2 4 3 5 3 6 7 7 6 4 5 5 5 5 4 3 4 5 3 3 3 2 6 8 10 15 19 20 19 18 16 15 16 15 13 12 10 10 11 13 14 15 15 14 13 14 14 15 14 12 12 12 13 14 14 14 14 15 15 15 15 14 15 15 15 15 15 13 13 14 14 14 14 14 14 14 15 15 15 14 15 15 16 16 18 19 19 19
10 8 2 1 2 1 3 1 3 2 4 2 6 5 7 7 7 7 4 3 5 5 4 3 5 6 3 1 4 6 5 12 12 15 21 21 21 19 18 18 19 20 15 13 10 8 10 11 14 15 16 16 14 14 13 13 14 14 13 12 12 13 14 14 15 15 15 15 14 14 14 14 14 14 15 15 13 13 13 13 14 13 13 12 13 13 13 13 13 13 14 14 16 17 18 17 17
6 3 1 3 2 2 1 3 3 3 2 2 5 7 8 8 7 6 4 2 1 1 3 3 4 6 2 3 3 6 13 17 17 22 25 23 22 19 17 18 20 20 16 12 9 9 12 13 15 16 16 16 15 14 12 12 14 15 14 13 13 13 15 15 15 15 15 15 13 13 13 13 13 13 14 14 13 13 13 13 14 13 12 11 11 12 12 12 12 12 12 13 14 16 17 16 15
3 0 1 3 1 3 2 3 3 3 1 1 4 6 8 8 7 6 5 3 3 2 2 1 5 5 2 5 4 5 14 19 23 25 25 24 22 19 18 18 18 20 16 11 8 10 14 14 16 17 16 15 15 14 12 13 15 15 14 13 14 14 15 15 15 15 14 14 13 13 12 13 13 12 13 13 12 12 12 12 13 13 13 12 12 12 11 11 11 10 11 12 13 14 16 16 15
2 0 1 2 1 3 4 3 2 2 1 3 4 5 6 6 7 7 6 5 5 4 1 2 6 6 5 5 3 3 12 21 24 23 23 23 19 19 20 17 17 18 16 11 9 13 15 15 17 17 15 14 14 13 12 13 15 14 14 13 13 14 14 14 15 15 14 13 13 13 12 13 12 12 12 12 12 11 11 11 12 12 12 12 11 11 10 10 10 10 10 12 13 14 15 15 15
2 1 1 1 2 1 3 4 2 1 1 1 3 3 3 4 6 6 7 5 5 5 1 3 5 5 6 4 1 4 18 21 21 23 22 19 17 20 19 17 16 15 15 12 13 16 16 16 17 16 14 14 14 13 13 14 15 15 13 12 11 13 14 14 13 13 13 11 10 11 13 12 11 11 11 11 12 11 10 11 11 11 11 10 10 10 9 9 9 10 11 12 13 14 14 14 14
1 2 2 1 1 2 3 3 3 1 4 4 4 4 2 4 5 5 7 6 5 6 2 1 2 4 5 2 2 6 18 18 19 22 18 14 17 21 18 16 15 13 13 13 16 18 15 16 17 16 14 13 14 13 12 13 15 14 13 11 11 12 13 12 12 12 12 11 10 10 12 12 11 11 10 10 10 10 10 10 10 10 10 9 9 9 9 9 10 11 11 12 13 14 14 14 14
1 1 3 1 2 2 2 3 1 2 5 3 1 5 3 4 3 3 7 6 4 6 3 5 3 5 4 1 1 5 11 16 20 20 15 14 18 21 18 16 15 13 13 14 17 17 15 16 16 15 14 13 13 13 11 12 14 13 12 11 10 11 11 11 11 12 12 11 10 10 10 11 11 11 11 11 11 10 10 10 10 9 9 8 9 9 9 10 11 12 12 13 13 13 13 13 14
1 1 2 1 1 1 3 3 0 4 2 4 3 5 3 3 2 2 7 6 3 4 3 4 4 6 3 1 1 3 7 19 23 18 15 15 18 19 17 16 16 15 13 13 16 17 16 15 15 15 13 13 13 12 10 10 11 11 11 11 10 10 10 10 11 11 11 9 9 9 10 10 10 11 11 10 11 11 10 10 9 9 8 9 10 11 11 12 12 12 12 13 13 13 13 14 15
1 1 3 1 2 2 2 2 2 5 1 4 3 2 4 1 2 6 7 6 1 2 2 2 4 4 4 5 4 6 12 23 24 19 17 16 17 18 16 16 16 14 13 12 15 17 16 16 16 14 14 14 13 12 10 10 10 10 11 9 9 10 10 10 10 10 10 9 8 8 9 9 9 9 8 8 9 10 10 10 9 9 8 9 11 11 11 12 12 12 12 11 12 12 13 14 15
0 1 3 0 2 1 2 2 2 4 1 4 3 1 4 3 2 5 1 5 2 2 3 2 1 3 4 5 8 14 20 26 23 20 19 16 17 18 16 17 17 15 14 13 15 16 15 15 16 15 14 14 13 12 10 10 9 10 10 9 8 8 9 9 10 11 11 9 8 8 9 9 8 8 8 7 8 8 8 9 9 9 10 11 12 12 11 11 11 10 10 10 10 11 12 12 13
2 2 2 0 1 1 2 2 1 3 2 3 3 3 4 3 3 2 1 5 4 0 4 2 3 4 3 5 16 25 26 26 24 22 20 17 18 18 16 17 19 18 16 16 15 15 14 14 16 16 15 14 14 12 12 12 10 10 10 9 9 8 8 9 11 12 10 8 8 8 8 9 8 8 8 8 8 7 8 8 10 11 12 12 12 11 10 10 9 9 9 9 9 9 10 11 11
3 2 2 1 2 2 2 1 2 3 2 2 1 3 5 1 2 1 2 5 3 3 4 3 6 6 8 15 25 28 27 27 25 24 21 19 19 17 16 18 20 18 17 19 17 16 15 14 16 16 16 15 14 13 13 13 12 11 10 10 10 10 9 10 12 12 10 8 7 8 8 7 7 7 8 8 8 9 9 10 11 12 12 12 11 10 9 8 8 8 8 8 8 8 8 8 10
2 3 3 2 3 2 2 3 1 2 3 3 1 3 5 3 1 1 1 1 1 4 2 3 7 6 10 18 25 28 27 27 25 25 22 20 20 18 18 18 21 18 17 21 20 17 15 14 15 15 15 16 15 14 14 14 13 11 11 11 10 11 11 11 12 12 11 9 8 9 8 7 6 6 8 8 9 10 11 11 11 12 11 10 9 8 7 7 7 8 8 8 8 8 7 7 8
2 3 3 4 4 1 2 2 1 0 2 4 1 2 4 1 0 2 1 0 2 5 3 3 5 6 8 12 21 25 25 24 24 24 22 21 21 19 19 21 22 20 19 20 20 18 16 15 14 14 16 18 17 14 14 14 13 11 11 12 11 12 12 12 12 12 11 10 10 11 8 7 5 5 7 9 9 10 10 10 10 10 9 8 7 6 6 6 7 7 8 7 7 6 6 6 7
1 3 5 4 2 1 2 3 2 3 0 3 1 3 3 1 1 2 2 2 2 4 6 7 9 11 11 10 16 21 21 21 21 21 21 20 21 20 20 22 23 22 20 19 20 20 17 16 15 15 18 19 17 15 13 13 14 12 11 12 12 13 14 13 12 11 11 11 13 12 8 8 8 6 7 9 9 9 9 9 9 9 8 7 6 5 5 6 7 7 7 6 5 4 5 5 7
2 2 4 4 0 1 2 3 3 3 2 2 3 4 0 1 1 2 4 2 4 4 6 9 10 13 14 14 16 18 18 19 19 20 21 21 20 21 21 21 23 23 21 21 21 21 19 17 17 18 20 20 18 16 13 12 14 14 12 11 12 13 15 14 12 11 11 14 15 11 9 12 12 9 8 9 9 9 9 8 8 8 7 6 5 4 5 5 7 7 6 5 3 3 4 4 6
2 3 3 4 2 2 2 2 1 2 3 3 2 1 1 1 2 3 6 6 7 6 6 8 11 17 20 19 17 16 15 17 19 20 23 23 22 22 23 24 24 25 24 23 22 21 20 18 18 19 20 20 19 16 12 11 13 14 13 12 11 12 15 15 13 12 11 14 16 12 10 14 15 12 11 11 11 10 9 8 8 7 7 6 5 4 5 5 6 6 4 3 2 2 3 3 5
2 3 4 5 2 1 4 2 2 2 2 1 1 1 1 1 2 1 4 6 7 7 5 8 14 20 20 17 16 16 17 19 20 22 24 26 24 22 24 26 25 26 26 25 24 22 21 19 19 20 20 19 18 16 14 13 13 15 15 13 12 12 15 16 14 14 13 13 16 15 13 14 15 14 13 13 12 11 10 8 7 7 7 6 5 4 5 6 5 3 2 2 0 0 2 3 3
4 5 5 5 3 2 4 2 3 3 3 3 1 1 4 6 3 1 5 7 7 6 4 8 12 15 15 14 14 15 16 19 21 21 23 25 24 20 21 26 26 27 27 27 26 24 23 22 21 22 21 20 19 18 17 16 16 16 16 15 13 13 15 16 15 15 16 16 17 17 15 15 16 15 14 13 14 12 10 8 7 7 7 6 5 5 5 5 3 1 4 3 4 3 1 2 2
6 7 5 5 4 3 4 2 2 2 3 1 1 4 7 6 2 2 7 8 8 5 6 8 11 12 12 12 13 14 14 17 21 22 22 24 25 21 20 23 26 28 28 27 28 26 25 24 24 24 23 22 22 21 19 19 19 18 18 17 16 15 15 15 15 15 17 17 18 19 16 14 15 15 12 12 14 13 12 11 10 9 8 6 6 6 5 4 1 1 4 4 5 5 5 4 2
7 5 3 5 3 1 2 1 3 3 4 4 4 7 7 5 2 3 6 7 4 5 7 7 11 11 12 10 11 15 15 18 23 23 22 22 24 25 24 22 24 29 29 27 28 26 25 26 25 25 24 23 24 23 20 19 20 21 20 18 19 18 15 15 16 15 16 16 17 20 17 13 13 13 11 11 13 14 14 14 13 10 9 7 6 6 5 5 5 3 2 3 4 2 2 2 1
8 6 4 2 2 3 1 2 4 2 3 3 2 6 7 3 3 5 7 6 3 8 8 7 9 10 10 10 10 12 15 19 23 22 22 24 26 28 28 26 24 28 31 29 28 27 26 27 25 26 25 24 24 24 22 20 19 20 20 19 19 20 17 15 15 15 16 16 15 18 18 14 13 12 11 11 12 14 14 14 13 11 10 8 7 7 6 7 7 6 4 3 3 1 3 2 1
6 6 5 2 2 3 3 2 3 1 1 2 4 5 8 5 6 7 9 9 5 8 8 8 9 8 8 9 9 10 14 19 20 21 25 28 29 30 31 31 26 27 32 30 28 28 26 26 26 26 26 24 24 24 24 22 19 19 21 20 19 20 20 17 16 16 17 15 13 16 18 17 15 14 13 12 12 13 12 12 13 10 8 9 10 9 7 7 7 7 6 4 3 1 1 1 1
4 4 4 2 1 4 6 5 3 3 4 3 4 4 6 5 7 8 8 8 7 7 8 8 7 7 7 8 8 8 12 17 20 24 27 27 29 31 32 33 30 26 30 31 29 28 27 26 26 27 27 26 26 25 25 24 21 20 22 22 20 21 22 20 18 17 17 15 13 14 17 19 17 15 14 13 12 12 10 11 12 9 7 9 11 9 7 5 4 5 6 5 4 3 3 3 3
4 3 2 3 2 4 5 6 6 5 5 4 4 4 7 4 6 6 6 5 10 9 8 7 7 7 7 7 8 8 11 17 22 25 27 27 29 31 32 33 33 28 28 31 31 29 29 28 27 28 28 28 27 27 26 27 25 22 22 22 20 20 22 22 20 18 17 16 15 14 16 20 19 16 15 14 14 13 11 11 12 11 10 10 10 9 7 6 6 6 6 6 6 4 3 5 4
3 3 3 3 4 3 3 5 9 9 6 7 7 5 7 6 8 8 4 6 10 8 7 7 7 8 8 7 7 7 9 14 21 25 27 28 29 31 33 33 34 32 28 30 31 30 30 30 29 29 29 29 28 28 27 28 27 24 23 22 21 21 22 24 23 21 19 18 18 17 17 20 21 18 16 16 15 16 15 14 14 13 13 13 12 10 8 8 8 8 8 8 8 6 5 6 6
2 3 3 4 5 3 4 5 9 12 6 6 9 6 4 4 6 6 4 6 9 8 8 7 8 9 9 7 7 7 7 10 14 21 27 29 30 31 33 34 35 36 32 30 31 32 32 31 31 30 30 30 29 28 28 28 28 26 25 23 22 22 22 24 24 22 21 21 20 20 18 19 22 20 18 17 16 17 18 16 15 15 15 14 12 11 10 8 9 9 9 9 8 8 7 6 6
3 3 2 3 6 6 4 4 6 8 8 6 8 8 8 8 6 5 4 4 7 7 7 7 7 8 8 7 7 7 8 8 10 19 27 29 30 31 33 35 35 37 36 32 31 32 33 32 32 31 30 30 30 30 29 28 27 27 26 25 23 23 23 23 23 24 23 23 22 21 19 18 21 22 20 18 17 18 19 18 16 15 15 15 13 12 11 10 11 11 10 9 9 9 9 9 8
5 5 4 3 5 7 6 4 4 6 7 6 6 6 13 11 7 7 7 5 5 7 7 7 7 7 8 8 8 8 10 10 13 22 27 28 29 30 33 35 35 36 37 36 33 31 32 32 32 31 31 31 31 30 29 28 26 26 26 25 24 24 25 23 23 24 25 25 24 23 20 19 21 23 23 21 20 19 19 19 18 17 15 16 15 14 13 13 13 14 12 11 11 10 10 10 8
7 6 6 5 5 6 6 5 5 7 6 6 7 8 13 10 7 9 10 7 7 8 7 7 7 7 7 8 8 9 10 11 17 25 27 27 29 30 31 33 35 36 37 38 36 33 32 32 32 33 33 32 32 31 30 29 28 27 27 27 26 27 27 26 25 25 26 26 26 24 23 21 21 23 24 24 24 23 22 20 19 18 16 16 17 16 16 16 16 16 15 13 12 12 11 10 7
7 6 6 6 5 5 6 6 6 6 6 7 9 9 12 11 8 9 10 8 8 9 8 8 8 7 7 9 10 10 11 12 18 24 26 28 30 31 31 32 34 34 36 37 38 37 35 34 34 35 35 34 34 34 33 33 33 31 31 31 31 30 30 29 27 27 27 27 26 25 25 24 23 24 25 26 27 26 24 23 21 21 20 19 18 18 18 19 18 17 16 14 14 13 13 12 9
6 6 5 6 6 5 5 5 6 6 5 6 7 7 11 13 10 9 8 8 10 11 10 10 11 10 8 9 12 12 10 10 12 17 23 28 30 31 31 32 33 34 36 38 39 38 36 35 36 37 36 36 35 35 35 36 36 36 35 35 34 33 33 32 31 30 29 28 27 27 27 27 27 26 25 26 27 27 26 25 25 24 23 22 21 20 20 20 19 19 18 15 14 14 15 13 10
3 4 5 5 5 3 3 1 2 4 3 4 4 5 10 12 10 10 9 10 12 12 12 12 12 11 10 10 12 11 10 9 9 12 19 27 30 32 31 31 34 36 36 36 37 37 37 36 38 39 38 38 37 36 36 36 37 36 34 33 34 33 33 33 33 32 31 30 29 29 29 30 29 28 27 26 27 28 27 26 27 26 25 24 23 22 22 22 20 20 20 18 16 15 15 14 13
4 3 4 4 4 3 2 1 1 2 3 2 2 3 7 9 10 10 12 13 13 13 14 14 12 12 13 13 11 11 12 12 11 11 14 23 28 30 31 32 35 36 34 34 35 37 38 39 39 39 40 40 39 38 37 35 34 34 32 30 30 31 31 32 32 32 32 32 31 32 33 32 31 31 30 28 28 28 27 27 27 27 26 26 26 25 25 24 22 22 22 21 19 17 16 16 15
7 5 5 3 4 5 3 3 4 0 2 1 1 4 5 7 9 11 10 10 13 14 13 13 12 11 11 11 11 13 14 14 13 13 12 17 23 28 33 35 35 35 35 36 38 39 41 41 40 38 38 39 40 39 38 35 32 31 31 28 27 28 29 30 32 33 34 35 35 35 35 34 33 33 32 31 30 30 29 28 28 28 27 27 27 27 26 26 24 24 23 22 21 20 19 18 17
7 8 8 6 6 5 3 5 4 2 4 3 2 2 6 5 7 9 6 4 9 11 11 13 13 12 10 10 11 12 13 13 13 14 13 16 23 28 31 33 33 34 37 39 41 42 42 41 39 38 37 38 39 39 38 35 33 32 32 30 29 29 29 31 35 36 37 38 38 37 36 35 35 35 34 33 32 32 31 30 29 29 28 28 28 27 27 27 26 25 24 22 21 22 21 19 18
6 8 10 9 7 5 5 6 3 1 3 3 4 3 5 5 7 9 7 6 8 9 9 12 12 12 12 11 12 12 12 12 11 12 13 16 21 24 27 31 34 36 40 42 41 42 40 39 39 39 38 38 39 39 38 37 36 34 34 34 34 33 32 33 36 36 36 38 38 37 37 36 35 35 36 35 34 34 33 32 31 30 29 29 28 28 29 28 28 27 26 24 22 22 22 20 19
6 7 11 10 9 5 4 6 3 2 1 3 2 3 3 6 7 9 9 9 11 10 10 12 12 13 14 14 14 13 14 13 12 12 12 15 20 24 27 33 38 41 41 41 40 41 41 40 40 40 39 38 39 40 40 40 39 37 36 36 35 35 35 34 34 34 34 35 36 37 38 37 37 36 36 36 36 35 35 34 33 32 31 31 29 30 30 29 29 28 27 25 23 23 23 22 20
4 8 12 10 7 2 2 2 2 1 1 4 3 2 2 7 6 5 6 8 10 12 12 12 12 15 16 16 16 15 14 13 12 13 13 15 21 27 31 35 39 42 41 40 42 42 42 42 41 40 41 40 39 40 41 42 41 39 37 37 36 36 35 34 32 33 34 34 35 37 38 39 39 39 38 37 37 36 36 35 34 34 34 33 32 31 30 29 29 29 28 26 25 24 24 23 22
3 8 9 5 4 3 3 1 3 2 1 5 5 4 3 6 5 3 2 4 9 11 11 11 13 14 15 15 15 15 13 10 11 13 13 17 25 31 35 36 38 40 41 41 42 40 40 41 41 41 42 42 41 40 41 42 42 40 39 38 38 37 36 33 31 31 33 34 35 37 38 39 40 40 40 39 38 38 37 37 36 36 36 35 35 33 32 31 30 29 29 27 26 25 25 24 24
6 7 6 6 4 4 3 1 4 1 6 5 8 8 4 5 4 4 4 5 9 9 8 9 11 12 12 12 13 13 12 10 10 11 12 18 26 31 33 33 35 38 38 38 38 38 39 40 40 41 43 42 41 41 41 41 42 42 42 40 40 40 37 34 32 32 33 34 36 37 38 39 40 40 40 40 40 39 39 39 38 37 37 37 37 36 35 33 31 30 30 28 27 27 26 25 25
8 6 6 6 2 3 2 3 3 4 8 4 7 8 7 7 6 3 5 6 6 8 8 11 12 11 9 10 11 12 11 10 11 10 10 13 18 22 26 28 32 33 33 34 37 38 38 38 39 40 41 41 42 41 41 42 42 43 44 43 42 41 39 37 36 36 36 37 38 38 37 38 38 39 39 40 41 41 40 40 40 39 38 39 39 38 36 34 32 31 30 29 28 28 26 25 26
4 6 8 7 3 2 3 2 2 5 5 1 5 6 5 9 7 5 11 12 11 10 9 10 11 10 9 8 9 9 8 9 9 10 10 10 10 14 20 24 28 29 31 35 38 38 37 38 39 39 41 42 41 41 42 42 43 44 46 44 42 41 39 39 39 38 38 38 38 38 37 37 38 38 39 40 41 42 41 41 41 41 41 40 40 39 37 35 33 31 30 30 30 28 27 26 28
8 9 11 9 6 5 7 4 1 4 3 1 4 4 3 7 4 9 16 17 15 12 10 9 8 8 9 7 7 7 7 8 8 8 9 9 10 13 19 23 26 27 31 35 36 37 37 37 37 39 42 42 40 40 41 42 44 45 45 43 42 40 39 39 39 38 38 37 37 37 38 39 39 40 41 42 42 41 42 42 42 42 42 41 40 39 37 36 34 32 31 31 30 29 27 27 29
13 9 8 9 6 5 7 5 4 4 2 2 3 3 4 4 3 8 11 12 12 10 9 9 8 8 8 7 6 6 5 6 6 7 8 8 10 15 18 21 24 27 29 31 32 33 34 35 37 39 41 40 38 39 40 41 43 43 42 41 41 40 39 38 38 38 37 37 37 37 38 39 39 40 41 40 40 40 41 42 42 42 41 41 40 39 37 36 34 33 31 30 30 29 28 28 30
7 2 4 6 5 5 3 3 5 5 2 2 3 3 4 4 7 10 8 9 9 8 8 7 8 10 8 7 8 6 5 5 5 6 7 8 11 15 18 20 23 26 27 28 29 31 32 34 35 37 39 38 36 38 39 40 41 39 39 40 40 40 38 38 38 38 38 38 38 38 39 39 39 39 39 39 39 39 40 41 41 41 41 41 40 39 37 36 35 33 31 29 28 29 29 30 31
5 3 5 4 2 5 4 0 1 5 1 3 4 6 4 2 9 12 10 14 11 7 7 6 8 8 6 8 8 7 6 6 6 6 7 7 9 14 18 20 22 24 25 27 29 32 34 35 34 35 36 35 35 38 40 40 39 37 37 39 39 40 40 40 39 39 39 38 38 38 39 39 39 38 38 38 39 39 39 40 41 41 41 41 40 39 37 36 34 32 30 28 28 30 31 31 31
7 7 7 3 3 3 3 1 1 3 4 4 5 9 5 1 6 6 6 13 12 9 8 7 8 6 6 9 9 7 7 6 7 7 7 7 8 11 15 17 19 22 24 27 29 32 34 35 35 35 36 36 37 38 39 40 39 38 39 39 39 41 41 42 41 40 38 37 37 38 38 38 38 38 38 38 38 38 39 40 40 40 41 41 40 38 37 35 33 32 30 29 30 32 33 32 31
3 7 10 7 2 2 4 4 3 4 6 5 4 8 5 6 7 4 4 8 9 9 8 8 9 8 8 9 9 8 7 6 7 7 6 6 7 11 14 15 17 19 21 24 26 28 30 33 35 36 37 37 37 37 37 38 39 39 40 40 40 40 40 40 40 39 37 36 37 38 37 37 37 37 37 38 38 37 38 39 39 40 40 40 39 37 36 35 33 32 30 30 32 34 34 32 29
2 5 8 6 4 5 6 6 3 5 7 6 3 2 4 7 7 6 9 11 10 9 7 7 9 9 9 9 7 7 6 6 6 6 6 6 7 12 14 15 16 17 18 19 20 22 25 28 30 32 33 33 33 34 34 36 37 38 38 38 38 39 38 38 37 37 37 37 37 37 37 37 36 36 37 38 38 38 38 38 38 39 39 39 38 37 36 36 34 33 32 33 34 35 33 31 29
5 7 9 8 4 2 3 4 3 3 4 4 3 3 6 5 5 11 14 14 14 10 7 8 9 9 9 8 7 7 6 6 5 5 6 6 7 10 10 10 11 12 13 14 15 17 19 22 24 26 28 29 30 32 32 33 34 34 34 35 36 36 36 36 35 35 36 37 36 36 36 35 35 35 36 36 37 37 37 38 38 38 38 38 38 38 38 37 36 35 35 36 36 36 34 32 30
11 10 11 11 7 4 4 5 3 2 2 3 3 6 7 5 5 9 12 13 12 8 8 8 8 8 8 6 7 7 6 6 6 6 6 5 6 7 8 8 9 10 11 12 13 15 17 20 22 23 25 26 28 28 28 29 29 30 31 32 33 33 33 33 34 34 35 35 35 35 34 34 35 35 35 36 36 36 36 37 37 37 37 37 38 39 40 39 38 38 37 37 37 37 35 33 31
Wind_Direction
336 332 334 347 343 342 340 59 55 321 93 343 282 119 286 224 107 76 64 61 57 351 56 95 66 55 82 105 120 100 62 12 188 169 196 164 144 153 158 147 145 145 143 141 141 137 134 132 129 129 127 123 119 113 109 106 107 108 103 102 108 110 106 104 102 101 99 101 107 106 100 99 96 95 95 94 96 96 94 91 90 89 88 88 87 86 84 83 82 81 80 79 81 81 85 90 91
337 332 339 346 333 341 327 89 71 331 45 7 297 122 250 36 61 73 88 89 95 180 74 71 56 61 89 118 125 86 48 31 81 103 115 143 137 140 147 144 141 142 144 142 142 139 135 134 132 133 131 127 122 117 111 110 113 113 110 111 114 108 107 108 104 103 102 102 105 106 103 101 99 99 97 96 96 98 100 96 94 95 95 92 88 88 86 84 82 81 80 80 81 85 90 94 93
340 336 344 353 332 28 14 36 86 16 41 182 275 301 75 67 84 99 97 104 123 123 77 54 46 56 79 93 71 61 88 52 84 81 110 142 133 138 146 142 137 139 145 145 144 142 138 137 135 137 134 129 125 119 113 111 111 112 114 114 111 108 108 107 103 103 102 103 104 105 105 103 101 98 95 94 94 95 96 95 97 99 98 95 91 89 88 87 86 84 82 81 81 85 93 96 94
342 343 340 350 4 38 47 41 139 133 27 214 293 11 91 104 115 97 95 104 104 83 66 61 46 12 67 86 80 78 116 100 104 104 120 141 133 143 148 141 140 139 145 147 145 144 145 144 140 140 137 133 129 122 117 116 117 116 117 115 111 110 109 107 105 104 103 104 104 106 107 104 101 96 95 94 94 94 94 96 98 101 98 92 89 86 86 88 87 87 84 82 81 86 95 98 95
334 335 330 346 45 16 73 58 87 78 309 218 109 93 119 121 121 101 74 55 61 60 55 88 71 5 63 75 108 96 111 111 117 120 128 139 137 142 147 144 144 143 149 148 145 147 150 150 145 143 141 136 132 127 123 125 126 123 120 117 114 111 110 109 107 107 108 106 107 110 108 107 103 98 97 96 96 97 99 100 96 98 96 91 89 83 84 87 85 86 85 84 83 87 96 99 97
335 338 344 130 165 119 86 16 332 350 272 190 111 133 136 124 124 115 74 37 38 56 56 73 94 86 71 36 61 73 174 140 127 133 139 143 144 144 143 144 147 149 152 150 149 151 153 156 149 146 144 139 137 133 128 129 131 128 123 120 118 114 112 114 113 111 112 110 110 112 112 112 108 104 104 101 99 102 104 105 100 98 97 94 91 85 86 88 86 86 85 84 85 88 95 100 100
348 352 28 56 330 48 90 244 261 256 254 132 113 140 134 132 128 113 96 50 14 23 38 57 107 97 75 106 79 36 91 139 137 139 144 145 149 146 140 142 148 153 154 150 153 162 161 157 152 150 147 143 140 135 131 130 133 132 127 122 121 118 116 120 120 117 118 115 112 113 115 114 112 113 111 105 103 104 107 110 108 105 102 99 94 91 92 93 91 89 87 85 85 87 93 98 100
358 359 65 65 360 7 76 268 263 208 235 73 119 144 141 142 128 110 122 118 43 28 29 22 82 87 36 63 99 47 83 125 137 139 144 144 147 145 143 145 145 149 153 151 150 163 160 153 153 153 149 146 142 137 136 131 132 132 129 126 126 125 125 129 126 122 122 118 114 116 114 115 118 119 114 108 105 102 104 112 112 108 107 107 105 101 97 96 95 93 92 88 86 86 88 92 96
5 71 28 67 360 347 352 302 272 217 234 96 106 125 146 144 123 116 118 98 124 105 56 67 68 93 99 62 94 79 89 119 131 136 143 143 145 145 152 154 147 144 146 151 152 158 156 153 154 153 151 150 147 144 140 131 131 134 132 135 135 133 131 130 125 121 120 115 115 118 115 117 119 116 113 112 109 103 101 108 109 107 108 110 111 108 103 101 100 98 95 91 87 86 85 86 89
14 148 50 73 27 1 323 301 226 209 221 153 107 113 136 133 123 123 118 104 112 95 17 88 76 108 129 91 95 108 118 129 131 137 143 142 145 150 156 158 154 148 147 153 158 159 155 154 156 154 154 152 152 148 141 134 134 137 139 147 146 137 133 130 125 121 118 117 119 118 114 113 115 116 117 119 119 112 110 114 110 109 109 108 110 111 111 107 106 101 96 93 88 84 83 83 83
6 324 85 88 27 33 276 300 301 233 284 66 46 66 106 104 109 110 115 105 102 109 360 39 75 123 109 96 268 131 133 136 136 141 143 142 148 154 155 154 157 157 154 155 158 160 156 156 159 157 157 155 155 150 145 143 143 145 149 154 148 136 133 133 130 125 123 124 124 121 119 119 120 123 124 129 130 122 119 121 113 110 112 109 110 113 115 113 110 103 97 93 88 83 81 80 79
357 322 68 130 237 200 239 299 315 15 354 12 10 339 27 79 88 120 128 120 127 125 146 108 117 133 99 89 244 146 136 135 139 142 145 145 150 151 150 151 156 159 156 156 158 160 156 159 163 161 162 158 155 154 152 151 153 156 158 158 149 139 137 137 134 130 129 131 135 133 133 135 135 132 127 131 133 128 123 121 116 114 114 112 113 114 118 117 109 102 98 92 87 84 81 78 74
321 314 65 216 222 205 268 292 295 58 358 347 286 308 5 70 70 160 141 117 128 119 170 209 144 89 94 97 149 162 145 140 141 142 146 146 146 145 146 151 152 154 152 156 160 160 160 162 166 165 164 160 158 158 155 155 160 163 163 164 157 147 142 141 138 134 134 137 147 152 146 143 144 141 134 134 134 134 134 127 122 122 120 123 122 115 115 112 105 100 96 92 88 86 81 76 69
312 302 92 229 298 352 277 268 359 81 349 289 278 313 2 78 57 93 111 86 46 129 185 215 125 90 103 129 116 203 162 148 147 146 144 141 146 144 143 148 150 151 150 158 163 162 164 166 170 169 168 164 160 160 158 161 165 169 169 169 165 158 153 149 146 144 143 138 144 154 154 148 151 150 141 141 141 141 142 133 129 131 131 130 124 114 111 107 103 101 96 93 90 86 82 73 65
285 309 100 184 325 355 281 255 150 111 188 264 274 330 39 88 101 69 98 108 2 227 155 71 95 99 156 169 187 206 164 150 150 151 145 137 147 149 146 148 150 152 151 157 162 163 165 167 172 173 173 169 165 164 162 166 170 174 174 172 169 166 163 160 155 150 144 134 131 144 157 155 155 159 155 152 149 151 149 144 144 139 132 126 119 113 110 107 103 101 96 94 91 88 81 72 67
201 23 71 115 286 325 283 311 92 109 217 244 266 21 61 337 57 80 116 133 140 296 52 44 37 107 164 179 177 174 158 150 150 152 147 141 149 153 154 152 150 153 157 159 161 165 166 168 173 175 177 175 173 170 164 165 170 176 179 180 177 173 170 167 159 151 146 138 130 138 158 161 160 162 163 164 159 161 160 156 152 135 128 124 118 115 112 108 103 98 95 93 93 88 78 72 67
57 60 73 283 246 287 269 341 72 137 220 251 322 32 98 320 360 84 310 91 122 69 61 45 34 91 139 152 156 157 152 150 150 149 147 148 152 156 160 158 157 158 163 167 167 168 166 169 174 177 181 182 180 176 170 166 171 179 183 187 187 187 178 166 159 156 153 143 131 136 152 159 160 161 163 170 169 166 161 150 138 125 124 122 118 118 114 108 102 96 93 91 91 86 75 67 55
69 116 127 240 223 235 212 206 217 141 147 220 341 73 114 129 347 11 27 54 90 101 81 71 54 68 106 129 144 149 149 150 151 149 148 152 156 160 162 166 169 167 168 171 174 174 169 170 175 179 183 187 187 182 178 172 177 186 186 191 193 192 185 169 164 166 164 151 139 138 145 152 154 159 157 158 160 154 145 136 128 122 123 122 121 120 114 108 99 93 91 87 85 80 70 57 47
93 134 141 222 221 243 186 176 218 97 143 179 114 94 100 125 194 71 66 324 121 112 96 79 76 82 107 126 138 145 150 151 154 154 153 158 164 169 166 170 179 178 172 171 174 177 175 173 175 181 185 190 192 187 185 182 185 191 192 198 198 194 190 179 173 173 171 158 144 140 143 152 154 157 153 148 147 145 141 136 131 129 128 128 127 125 118 108 98 95 91 84 80 77 67 49 41
123 130 158 233 232 212 110 124 150 24 155 145 149 113 89 65 126 117 141 233 184 171 179 116 125 148 138 138 143 147 151 152 158 159 161 166 172 178 173 172 181 184 177 173 176 177 178 179 179 182 187 193 194 187 188 188 192 195 199 206 204 197 193 191 187 181 177 166 149 146 154 168 171 166 162 158 149 148 147 142 140 138 137 137 134 133 124 109 102 101 95 87 83 75 64 49 34
136 140 171 219 253 166 134 98 51 330 351 130 166 93 78 323 67 138 133 61 284 230 192 183 181 167 156 153 151 154 154 156 162 164 169 174 178 184 183 177 181 184 178 178 183 182 184 186 187 186 187 196 197 191 193 197 199 199 203 207 205 201 196 195 193 192 189 175 160 159 177 190 195 200 185 172 160 158 155 151 153 150 150 148 147 148 133 119 108 99 91 88 92 69 55 52 35
142 211 183 181 107 189 192 105 64 329 341 61 64 82 111 277 64 184 153 154 244 229 194 195 181 162 163 164 159 160 160 165 169 171 178 183 185 188 188 183 181 183 181 184 186 185 187 187 189 190 189 197 200 199 200 201 200 199 201 200 201 202 198 195 190 192 190 176 172 175 188 191 196 211 204 185 172 167 163 164 167 164 166 163 165 162 137 126 113 100 89 78 81 51 36 38 30
150 241 230 193 209 188 162 80 360 338 31 60 88 143 258 360 316 221 170 195 226 220 196 179 172 169 166 163 162 165 169 175 178 179 183 189 193 191 188 186 184 184 183 187 188 184 185 186 190 189 190 195 199 203 201 194 199 203 202 199 204 199 191 192 189 191 191 179 181 186 189 191 201 215 210 195 183 175 172 173 179 177 176 176 175 158 132 126 114 103 89 60 53 36 13 12 18
161 204 226 203 211 168 135 143 247 325 11 186 162 25 337 225 275 238 194 226 236 237 207 154 165 168 161 161 169 175 176 180 185 185 187 194 199 194 188 187 188 185 183 187 190 189 189 189 191 189 190 194 196 201 197 193 202 207 203 203 213 199 185 191 193 196 199 193 192 193 193 201 214 216 204 197 190 185 182 180 188 190 182 182 179 158 141 135 127 123 124 105 181 149 26 3 349
223 203 212 191 192 186 142 167 228 278 266 213 126 334 261 231 205 214 242 248 246 231 180 137 151 158 161 171 177 179 180 181 185 186 189 196 201 201 192 188 189 186 185 187 189 192 192 193 195 193 194 199 201 201 202 202 202 202 200 204 211 203 197 198 198 203 204 203 202 199 202 210 218 214 199 198 198 188 185 188 199 202 192 191 188 164 142 136 126 185 192 202 246 248 285 2 8
216 195 194 187 191 187 149 184 246 281 267 211 341 275 267 251 206 255 246 242 248 210 155 139 145 159 174 180 181 181 182 183 184 185 189 195 202 210 202 191 188 186 187 188 189 192 192 193 197 198 199 203 206 208 211 211 206 206 206 210 210 203 209 208 203 209 209 209 204 202 209 210 208 205 199 205 203 191 187 195 202 199 196 196 190 167 142 150 163 204 201 228 261 270 269 271 20
187 168 160 169 156 166 150 224 296 316 299 274 259 261 273 271 221 259 265 255 241 170 161 157 151 169 183 181 185 185 186 189 186 183 185 191 199 209 211 201 191 189 188 187 189 192 191 194 198 200 203 205 208 212 215 214 211 213 214 217 213 204 209 212 207 210 212 216 211 205 206 197 193 198 204 211 202 193 195 199 198 196 198 191 179 174 164 186 213 219 227 283 282 311 308 242 57
162 139 112 163 57 357 300 316 299 304 296 262 224 267 275 270 215 223 254 258 178 158 173 171 163 177 187 184 188 187 191 194 188 183 184 190 196 203 210 210 200 191 190 189 190 191 191 196 199 202 205 205 207 211 212 214 215 215 214 217 216 206 205 208 207 210 213 221 220 207 196 187 191 199 208 211 198 199 205 203 198 196 199 188 173 186 193 203 225 233 241 286 280 45 65 112 106
143 140 144 225 354 321 252 235 265 240 247 168 82 309 268 235 234 222 237 242 187 169 179 179 181 183 186 188 187 190 194 192 189 191 193 194 195 199 204 209 207 194 190 191 190 190 192 197 201 203 206 206 206 206 207 212 216 215 214 217 218 209 204 204 205 212 218 221 219 204 191 186 194 203 210 213 204 208 210 202 197 189 191 194 191 204 219 228 240 235 232 243 229 225 248 211 213
130 146 154 167 3 271 229 200 236 248 235 183 87 299 252 225 236 233 247 236 185 181 190 189 194 189 192 191 188 195 193 190 192 199 201 198 197 199 202 207 209 201 191 191 191 192 196 199 201 203 206 208 209 207 205 209 213 215 216 219 221 214 206 202 203 214 219 215 212 206 194 187 190 200 208 210 207 209 204 193 193 190 195 203 201 213 232 236 230 220 223 224 214 243 244 201 203
136 138 161 166 185 225 214 194 203 224 229 170 124 254 254 251 248 255 278 214 178 193 205 200 201 198 201 195 191 198 197 196 198 201 203 202 200 200 202 204 207 207 197 194 196 199 201 202 202 203 205 209 212 211 207 207 210 213 217 219 220 215 208 203 204 211 211 207 211 214 201 191 190 193 199 205 205 204 201 195 196 200 207 211 209 223 239 229 226 227 223 218 209 227 218 176 175
150 157 179 197 207 219 243 213 197 212 226 158 151 250 272 259 247 246 242 167 171 195 210 210 206 201 203 201 197 197 202 203 202 204 205 205 203 201 202 203 204 207 203 198 199 201 202 203 204 204 205 208 211 213 211 210 209 212 218 219 217 213 209 207 209 211 205 204 213 218 210 199 194 192 195 206 209 204 203 203 206 208 210 215 221 232 235 228 234 234 221 216 212 210 192 171 179
213 185 167 182 197 222 289 267 214 206 205 176 192 233 274 261 261 258 224 173 173 192 215 219 209 206 204 199 199 194 197 205 206 208 208 206 205 203 203 203 203 205 206 203 200 200 201 202 203 205 207 208 210 211 212 212 210 211 216 219 218 214 210 209 212 213 205 204 212 219 219 210 202 197 197 206 211 206 202 204 211 212 213 219 226 230 226 224 230 226 214 211 211 208 201 199 203
206 184 188 197 186 195 223 266 248 194 182 203 209 231 251 254 280 297 278 213 186 194 220 229 220 214 209 199 196 192 193 201 209 212 210 208 206 205 204 204 204 205 207 205 202 201 201 202 203 205 207 209 211 211 212 212 211 211 215 218 219 216 214 212 213 214 208 206 212 219 222 216 210 204 200 204 211 208 203 206 211 214 219 223 224 223 217 218 222 222 217 207 205 208 210 217 221
171 177 206 222 193 199 199 222 243 172 181 211 190 229 251 251 264 268 259 226 202 213 222 231 230 219 214 205 195 193 195 201 210 211 210 208 206 206 205 205 204 205 207 207 206 204 202 203 204 205 207 209 211 212 212 210 210 212 214 217 219 218 217 216 214 215 212 210 213 218 221 219 215 211 207 206 210 211 206 207 211 216 221 219 218 220 214 213 215 219 222 210 204 214 220 218 220
169 181 195 204 201 213 207 216 225 166 167 216 198 223 249 248 246 252 255 236 218 230 230 232 233 220 213 209 204 200 197 205 212 210 208 207 206 205 204 204 205 205 207 207 207 207 205 204 204 206 208 209 210 211 210 207 205 209 212 214 216 216 217 218 217 216 214 214 215 218 220 221 220 217 214 211 212 213 211 209 210 217 222 216 217 220 214 213 214 217 222 214 206 212 220 222 220
174 178 197 208 208 230 218 214 228 170 156 221 215 223 250 252 240 239 249 248 243 242 236 236 236 225 212 208 211 207 204 212 212 207 206 206 206 205 204 203 203 204 205 206 206 207 207 205 205 206 208 208 209 209 207 204 202 204 207 209 211 212 215 216 217 216 215 216 216 217 218 220 222 221 219 217 216 215 214 213 212 217 222 220 222 223 218 216 217 220 223 220 216 215 215 218 219
181 177 197 211 212 238 234 208 213 179 167 237 223 220 250 254 248 242 240 244 249 244 238 238 236 232 220 209 212 211 212 216 209 203 202 203 205 204 204 202 201 202 204 204 205 206 207 207 208 208 207 206 209 210 208 206 205 204 205 207 209 210 213 214 215 216 215 215 215 216 217 218 221 221 221 219 218 217 215 215 215 217 220 222 224 224 221 218 218 222 223 221 217 216 215 214 211
201 170 179 208 223 246 298 6 164 175 187 246 235 223 252 259 257 253 243 240 245 242 239 237 232 233 229 217 214 212 214 216 206 202 199 199 202 202 202 202 202 204 205 205 206 206 207 209 211 211 208 207 209 210 211 211 210 208 208 209 209 210 213 216 218 218 215 214 214 215 216 218 220 220 221 220 218 217 216 216 217 218 219 221 222 222 220 218 219 220 221 222 216 211 212 212 213
214 166 165 211 222 206 259 17 124 194 200 219 254 253 263 269 269 261 244 236 243 242 238 237 229 226 228 222 215 207 210 213 209 206 199 198 200 199 200 202 203 205 205 206 207 208 209 211 212 213 211 210 211 212 213 213 213 213 213 214 213 213 216 219 221 221 217 214 213 215 216 218 219 220 220 219 218 217 216 217 217 218 220 221 222 221 220 218 219 219 220 222 217 210 207 208 215
216 197 182 201 216 214 217 169 156 245 313 303 320 307 279 253 255 259 249 235 242 243 237 240 235 228 232 229 220 212 208 208 206 207 201 196 197 198 200 202 203 204 205 207 208 209 211 212 213 213 213 213 213 214 213 213 213 214 214 216 217 217 218 217 217 218 216 213 213 214 215 217 219 220 220 220 219 217 217 217 216 217 219 220 221 221 221 220 220 221 220 220 220 218 213 207 210
218 213 200 192 212 229 187 146 135 55 319 266 165 286 283 264 257 260 266 245 240 245 238 238 239 234 235 234 227 222 216 211 206 205 199 195 198 199 201 202 202 204 207 208 210 211 212 212 213 214 214 214 214 215 213 212 213 212 211 210 211 211 213 214 213 214 214 213 213 213 213 216 218 220 220 220 220 219 219 218 216 216 217 218 220 221 222 221 220 221 222 224 226 226 219 208 204
217 203 185 191 214 222 156 151 161 155 268 260 159 198 272 297 283 264 272 272 252 251 243 236 238 235 230 231 230 226 223 219 213 208 199 196 198 197 199 201 202 205 209 210 211 212 212 213 213 213 214 214 214 214 213 212 212 212 211 211 211 211 211 214 216 216 215 215 215 215 215 217 218 220 221 221 222 221 221 221 219 218 218 220 221 222 223 222 222 223 225 228 228 226 219 209 205
219 164 164 192 210 214 174 163 192 203 273 310 209 178 270 279 270 260 256 261 264 260 247 238 235 233 231 231 229 225 222 216 211 209 201 197 198 198 200 202 204 208 210 210 211 212 213 213 213 213 214 214 213 213 212 212 212 212 213 214 215 215 215 217 218 217 217 217 217 217 218 220 220 222 223 223 223 224 224 223 222 221 221 222 223 223 223 223 224 224 225 227 227 226 220 212 209
219 157 168 191 186 202 280 182 174 68 33 288 242 145 276 263 261 275 248 239 257 257 246 241 234 231 231 231 231 227 223 216 207 205 202 200 199 201 204 205 207 210 210 210 211 212 213 213 214 214 214 215 214 213 212 212 213 212 213 215 217 219 220 220 220 218 218 217 219 220 221 222 223 224 225 225 225 226 226 226 225 224 224 224 223 224 223 223 224 223 223 223 224 225 221 217 215
199 154 152 139 113 61 7 165 127 64 291 240 207 167 253 264 241 251 249 222 241 247 244 239 234 231 228 229 233 230 224 217 210 207 203 203 203 204 207 208 210 211 211 211 212 212 212 213 213 214 216 216 215 214 213 213 213 213 214 215 217 220 220 220 221 220 219 218 220 221 222 222 223 224 225 225 226 227 227 227 226 226 226 225 224 224 224 224 225 226 226 225 225 223 218 218 220
131 121 107 83 56 43 34 33 88 91 258 220 178 173 199 272 251 204 215 224 226 231 242 247 244 240 231 228 232 231 224 215 210 210 207 207 208 208 208 210 212 213 212 212 212 212 212 212 212 214 216 217 216 215 214 214 214 214 216 216 217 219 219 218 218 219 218 217 219 220 221 221 222 223 224 224 225 226 227 227 227 227 227 227 225 225 225 226 227 228 228 227 225 221 217 219 223
133 124 124 116 62 19 25 2 69 213 250 221 174 163 169 238 261 232 242 258 241 225 228 240 244 241 233 227 231 231 223 214 208 209 210 209 211 212 211 212 214 214 211 211 212 212 213 213 212 214 216 217 216 216 215 215 215 216 218 219 219 219 218 217 217 218 217 217 218 219 219 220 221 221 222 223 223 224 225 226 226 226 227 227 226 226 226 227 228 228 227 225 223 220 220 223 225
151 137 146 148 157 189 198 218 185 216 252 239 161 146 179 240 257 256 259 264 254 235 227 236 241 242 244 235 235 236 223 214 211 209 211 209 209 210 210 213 215 213 211 211 212 212 212 213 212 213 216 217 216 215 215 216 216 218 219 219 221 221 220 220 220 220 220 219 219 218 218 218 219 219 220 221 222 222 222 224 224 225 226 227 226 226 227 227 226 226 225 222 220 220 224 227 226
186 169 168 174 166 182 201 196 213 232 241 209 143 130 253 271 265 234 243 253 254 248 240 240 240 240 248 243 237 239 223 211 211 214 218 214 213 213 210 211 214 214 213 213 212 211 210 212 212 214 218 218 216 215 216 217 218 220 221 220 222 223 223 223 224 224 223 222 221 220 219 219 219 219 220 221 222 221 222 224 224 224 225 226 226 226 226 227 226 225 224 222 222 224 229 229 226
194 182 171 184 173 182 194 181 203 220 225 219 165 144 210 226 249 235 234 251 263 262 247 241 245 243 247 259 260 253 237 222 210 210 219 219 218 217 215 213 213 214 216 216 214 212 211 211 212 215 219 219 216 217 217 218 220 222 222 222 223 224 225 226 226 227 226 225 224 222 222 221 221 222 223 223 223 222 223 224 224 224 224 225 225 224 225 226 226 224 224 225 226 228 229 226 223
203 162 157 199 183 163 162 170 188 160 109 217 203 232 215 201 279 281 264 262 262 264 262 253 253 255 255 263 262 254 246 247 229 204 208 217 215 213 213 215 215 216 216 215 215 213 212 213 214 216 220 221 219 218 219 220 222 223 223 224 225 225 226 227 228 229 228 227 226 225 225 225 225 226 226 226 226 225 224 224 224 225 224 224 224 223 224 225 224 225 226 227 227 227 225 222 221
178 165 181 195 114 123 122 277 108 103 183 229 193 246 280 313 284 280 270 267 265 265 274 264 251 260 264 257 256 251 240 238 229 209 204 207 204 204 206 208 210 211 212 213 215 215 215 215 216 217 221 221 221 221 221 222 223 223 224 225 226 226 226 227 228 229 229 229 228 228 229 229 229 229 229 229 229 228 226 226 225 224 223 223 223 223 224 225 224 226 227 228 229 226 222 220 222
156 182 179 130 47 77 100 200 54 97 231 247 201 228 249 204 257 277 262 258 263 260 257 256 256 261 262 254 253 252 242 231 227 223 221 219 210 207 206 206 206 206 208 212 215 217 217 218 218 218 220 221 221 222 222 222 223 223 224 225 226 226 227 228 229 229 230 229 228 228 228 229 230 230 230 230 231 229 227 226 225 223 222 222 223 223 224 224 224 225 225 228 229 225 219 219 223
178 178 166 148 167 191 158 186 200 189 222 260 234 225 224 203 223 275 262 240 252 255 243 243 248 243 242 250 254 257 254 244 237 233 233 234 225 220 216 215 214 212 212 214 215 216 216 218 220 220 222 223 223 223 222 223 223 224 225 226 226 227 228 229 229 229 229 229 229 229 228 229 230 230 230 230 229 227 225 224 223 222 221 221 222 223 223 222 222 222 223 224 223 219 218 221 225
352 137 163 174 183 184 181 183 175 182 215 249 264 231 240 226 204 211 238 245 246 241 227 228 235 231 232 240 246 250 244 232 228 221 222 222 220 221 221 223 225 224 224 223 223 222 220 220 221 222 225 226 225 224 224 224 225 225 227 229 229 230 229 230 230 230 230 230 231 230 228 229 230 229 229 228 227 225 223 221 220 219 220 221 222 221 220 219 219 220 221 220 218 217 220 223 227
152 160 182 191 178 143 176 188 154 143 189 234 263 263 255 248 199 193 214 236 241 228 204 215 229 231 233 234 230 227 221 219 218 207 207 210 209 208 208 216 220 220 222 223 224 227 227 227 227 226 228 228 227 227 226 226 227 228 229 231 232 233 232 232 233 233 233 233 233 232 230 230 230 229 228 226 225 223 222 221 220 219 220 221 221 220 218 217 216 217 217 216 216 217 220 222 223
173 178 186 185 172 139 166 207 185 131 182 195 216 258 258 238 201 196 206 226 233 210 186 205 225 228 224 219 212 204 199 208 213 207 206 206 200 190 185 192 198 202 209 212 215 219 222 224 226 227 228 229 230 229 229 230 232 232 234 236 237 237 236 236 235 235 235 235 235 233 232 231 230 229 228 226 225 223 223 223 222 222 224 224 223 220 216 214 214 214 213 213 215 216 218 220 219